Ann Arbor, MI

2:48 AM EST on February 06, 2016 (GMT -0500)
Ann Arbor Municipal

Weather History for KARB - April, 2012

Change the Weather History Date:

Sunday, April 15, 2012

  Actual Average Record
Temperature  
Mean Temperature 66 °F -  
Max Temperature 78 °F 59 °F 84 °F (2003)
Min Temperature 55 °F 37 °F 25 °F (2014)
Cooling Degree Days 1    
Growing Degree Days 16 (Base 50)    
Moisture  
Dew Point 56 °F    
Average Humidity 84    
Maximum Humidity 100    
Minimum Humidity 48    
Precipitation  
Precipitation 0.59 in - - ()
Sea Level Pressure  
Sea Level Pressure 29.84 in    
Wind  
Wind Speed 6 mph (SSW)    
Max Wind Speed 14 mph    
Max Gust Speed 24 mph    
Visibility 5 miles    
Events Fog , Rain    
Averages and records for this station are not official NWS values.
T = Trace of Precipitation, MM = Missing Value Source: NWS Daily Summary

Daily Weather History Graph

Daily Weather History Graph

Search for Another Location

Airport or City:

Trip Planner

Search our weather history database for the weather conditions in past years. The results will help you decide how hot, cold, wet, or windy it might be!

Date:

Astronomy

Apr. 15, 2012 Rise Set
Actual Time 6:53 AM EDT 8:17 PM EDT
Civil Twilight 6:24 AM EDT 8:46 PM EDT
Nautical Twilight 5:49 AM EDT 9:21 PM EDT
Astronomical Twilight 5:12 AM EDT 9:58 PM EDT
Moon 3:56 AM EDT (4/15) 3:05 PM EDT (4/15)
Length of Visible Light 14h 21m
Length of Day
13h 23m
Waning Crescent, 28% of the Moon is Illuminated
Apr 15
Waning Crescent
Apr 21
New
Apr 29
First Quarter
May 5
Full
May 12
Last Quarter

Hourly Weather History & Observations

Time (EDT) Temp. Dew Point Humidity Pressure Visibility Wind Dir Wind Speed Gust Speed Precip Events Conditions
12:53 AM 57.0 °F 54.0 °F 89% 29.91 in 7.0 mi SSW 8.1 mph - N/A   Overcast
1:53 AM 57.0 °F 55.0 °F 93% 29.90 in 4.0 mi SW 5.8 mph - N/A   Overcast
2:53 AM 57.0 °F 55.0 °F 93% 29.86 in 4.0 mi Calm Calm - N/A   Overcast
3:50 AM 57.2 °F 55.4 °F 94% 29.85 in 2.5 mi SSE 3.5 mph - N/A   Overcast
3:53 AM 57.0 °F 55.0 °F 93% 29.85 in 2.0 mi Calm Calm - N/A   Overcast
4:00 AM 57.2 °F 55.4 °F 94% 29.86 in 2.0 mi South 4.6 mph - N/A   Overcast
4:16 AM 57.2 °F 55.4 °F 94% 29.86 in 1.2 mi South 4.6 mph - N/A   Overcast
4:27 AM 55.4 °F 55.4 °F 100% 29.85 in 0.5 mi South 4.6 mph - N/A Fog Fog
4:53 AM 55.9 °F 55.9 °F 100% 29.84 in 0.2 mi South 5.8 mph - N/A Fog Fog
5:37 AM 57.2 °F 55.4 °F 94% 29.84 in 1.2 mi Variable 3.5 mph - 0.00 in Rain Light Rain
5:44 AM 57.2 °F 55.4 °F 94% 29.84 in 1.8 mi Calm Calm - 0.01 in Rain Light Rain
5:53 AM 57.0 °F 55.9 °F 96% 29.85 in 1.8 mi North 4.6 mph - 0.02 in Rain Light Rain
6:06 AM 57.2 °F 55.4 °F 94% 29.84 in 2.0 mi Calm Calm - 0.02 in Rain Light Rain
6:21 AM 57.2 °F 55.4 °F 94% 29.84 in 2.0 mi ESE 3.5 mph - 0.03 in   Overcast
6:30 AM 57.2 °F 55.4 °F 94% 29.85 in 2.0 mi Calm Calm - 0.03 in   Overcast
6:53 AM 57.0 °F 55.9 °F 96% 29.88 in 1.2 mi South 3.5 mph - 0.12 in Rain Heavy Rain
6:58 AM 57.2 °F 55.4 °F 94% 29.88 in 1.2 mi South 4.6 mph - 0.01 in Rain Rain
7:03 AM 57.2 °F 55.4 °F 94% 29.88 in 1.5 mi South 3.5 mph - 0.05 in Rain Heavy Rain
7:32 AM 57.2 °F 55.4 °F 94% 29.86 in 2.0 mi South 5.8 mph - 0.16 in Rain Rain
7:53 AM 57.0 °F 55.9 °F 96% 29.85 in 2.5 mi SSE 6.9 mph - 0.21 in Rain Rain
8:06 AM 57.2 °F 55.4 °F 94% 29.85 in 1.2 mi South 6.9 mph - 0.07 in Rain Heavy Rain
8:15 AM 57.2 °F 55.4 °F 94% 29.86 in 1.5 mi South 6.9 mph - 0.09 in Rain Rain
8:32 AM 57.2 °F 55.4 °F 94% 29.88 in 1.2 mi SSW 8.1 mph - 0.15 in Rain Rain
8:53 AM 57.0 °F 55.9 °F 96% 29.86 in 1.8 mi SSW 13.8 mph - 0.22 in Rain Light Rain
9:02 AM 57.2 °F 55.4 °F 94% 29.86 in 2.5 mi South 11.5 mph - 0.00 in   Overcast
9:37 AM 59.0 °F 55.4 °F 88% 29.85 in 3.0 mi South 9.2 mph - 0.00 in   Mostly Cloudy
9:53 AM 60.1 °F 57.0 °F 90% 29.84 in 4.0 mi South 8.1 mph - 0.01 in   Mostly Cloudy
10:53 AM 61.0 °F 57.0 °F 87% 29.83 in 5.0 mi South 9.2 mph - 0.00 in Rain Light Rain
11:53 AM 66.0 °F 59.0 °F 78% 29.82 in 9.0 mi SSW 9.2 mph - 0.00 in   Mostly Cloudy
12:53 PM 66.0 °F 59.0 °F 78% 29.83 in 9.0 mi SW 9.2 mph - 0.00 in Rain Light Rain
1:53 PM 66.9 °F 60.1 °F 79% 29.82 in 10.0 mi SSW 9.2 mph - 0.01 in   Mostly Cloudy
2:53 PM 73.0 °F 62.1 °F 68% 29.80 in 10.0 mi SSW 9.2 mph - N/A   Partly Cloudy
3:53 PM 75.9 °F 59.0 °F 56% 29.79 in 10.0 mi SW 13.8 mph 24.2 mph N/A   Mostly Cloudy
4:53 PM 77.0 °F 59.0 °F 54% 29.79 in 10.0 mi SW 9.2 mph - N/A   Mostly Cloudy
5:53 PM 75.9 °F 55.0 °F 48% 29.79 in 10.0 mi SW 13.8 mph 21.9 mph N/A   Overcast
6:53 PM 75.0 °F 55.9 °F 51% 29.79 in 10.0 mi SSW 10.4 mph 19.6 mph N/A   Overcast
7:53 PM 73.0 °F 55.9 °F 55% 29.79 in 10.0 mi SW 10.4 mph 18.4 mph N/A   Overcast
8:53 PM 72.0 °F 55.0 °F 55% 29.80 in 10.0 mi SSW 9.2 mph - N/A   Overcast
9:53 PM 69.1 °F 55.0 °F 61% 29.81 in 10.0 mi SSW 6.9 mph - N/A   Scattered Clouds
10:53 PM 66.9 °F 55.0 °F 66% 29.80 in 10.0 mi South 5.8 mph - N/A   Clear
11:53 PM 66.9 °F 54.0 °F 63% 29.77 in 10.0 mi South 8.1 mph - N/A   Clear